ESEO
1 43792U 18099AL  24308.60438423  .00007836  00000-0  61804-3 0  9995
2 43792  97.4904 358.3834 0007599 168.1117 192.0288 15.00977142323104
CSIM
1 43793U 18099AM  24308.74443729  .00080895  00000-0  29588-2 0  9994
2 43793  97.5148  13.1342 0009740 182.3871 177.7323 15.27698138323981
JO-97
1 43803U 18099AX  24308.10818771  .00038870  00000-0  22255-2 0  9999
2 43803  97.5014   3.9790 0008810 178.1486 181.9779 15.12480728323655
Suomi 100
1 43804U 18099AY  24308.64702687  .00027515  00000-0  16334-2 0  9992
2 43804  97.5080   4.2307 0014418 179.0170 181.1091 15.11199417323704
ISAT
1 43879U 18111D   24308.47063205  .00046370  00000-0  23179-2 0  9991
2 43879  97.6059 213.9522 0008838 233.3860 126.6561 15.17258109320488
UWE-4
1 43880U 18111E   24308.50756914  .00035763  00000-0  18820-2 0  9994
2 43880  97.5984 213.6000 0012360 247.8196 112.1725 15.15480061320485
Sparrow
1 43881U 18111F   24308.25717487  .00050051  00000-0  24549-2 0  9991
2 43881  97.6168 215.9363 0006392 289.9376  70.1168 15.17916580320524
Prox-1
1 44339U 19036A   24308.56347041  .00028836  00000-0  44431-2 0  9994
2 44339  23.9998  45.6121 0008978 116.3548 243.7870 14.72000354285769
SONATE
1 44400U 19038Q   24308.55482541  .00066839  00000-0  13748-2 0  9991
2 44400  97.7150 309.9244 0011513 340.7239  19.3572 15.45663406295512
Taurus 1
1 44530U 19059C   24308.84140216  .00025174  00000-0  52664-2 0  9997
2 44530  98.5887  73.1882 0009967 344.5576  15.5317 14.59720315272108
Duchifat 3
1 44854U 19089C   24308.32098766  .00066178  00000-0  25528-2 0  9992
2 44854  36.9537 279.5937 0011148 204.0980 155.9249 15.25187614269451
TO-108
1 44881U 19093C   24308.87403521  .00005485  00000-0  65472-3 0  9993
2 44881  97.8168  22.9435 0013196 221.6892 138.3318 14.84584393263761
FloripaSat 1
1 44885U 19093G   24308.74395145  .00019347  00000-0  18300-2 0  9994
2 44885  97.8330  30.4806 0011296 209.4968 150.5615 14.93652898264177
RS-44
1 44909U 19096E   24308.66540498  .00000049  00000-0  14358-3 0  9997
2 44909  82.5256  12.0900 0218491  85.1621 277.4389 12.79735633226866
UPMSat 2
1 46276U 20061E   24308.16130128  .00065076  00000-0  14607-2 0  9997
2 46276  97.2790  13.4088 0001270  48.8832 311.2525 15.43153064231533
AmicalSat
1 46287U 20061R   24308.74352559  .00187308  00000-0  22138-2 0  9998
2 46287  97.3276  17.6615 0000641  72.5843 287.5484 15.60673537231129
SALSAT
1 46495U 20068K   24308.46158615  .00023842  00000-0  12063-2 0  9990
2 46495  97.8347 271.7223 0012417 186.1004 174.0079 15.16959221225397
SOMP 2b
1 47445U 21006AJ  24308.74234118  .00765776  24235-3  23770-2 0  9998
2 47445  97.2884  11.3480 0001541 302.9672  57.1454 15.91656892210394
IDEASSat
1 47458U 21006AX  24308.72482917  .00333687  00000-0  23198-2 0  9999
2 47458  97.3046  10.8524 0002117  67.7727 292.3762 15.73432236210242
CubeSX-Sirius-HSE
1 47951U 21022V   24308.83510631  .00082455  00000-0  22009-2 0  9996
2 47951  97.4409 207.6708 0012051  20.0322 340.1393 15.37736605199936
CubeSX-HSE
1 47952U 21022W   24308.77291557  .00080786  00000-0  21404-2 0  9996
2 47952  97.4408 207.7374 0012053  18.9709 341.1982 15.37973348199935
KSU-Cubesat
1 47954U 21022Y   24308.70050222  .00113634  00000-0  24006-2 0  9993
2 47954  97.4412 209.9058 0009962  18.8284 341.3331 15.44704266199789
GRBAlpha
1 47959U 21022AD  24308.79595252  .00077002  00000-0  20396-2 0  9990
2 47959  97.4410 207.9283 0011973  18.9080 341.2607 15.37999298198765
Orbicraft-Zorkiy
1 47960U 21022AE  24308.86117236  .00101570  00000-0  23330-2 0  9991
2 47960  97.4451 209.9509 0010797  20.2970 339.8704 15.42250887199562
TUBIN
1 48900U 21059X   24308.79859856  .00052303  00000-0  13444-2 0  9993
2 48900  97.6615  98.4448 0005651 315.4623  44.6167 15.39094077186328
LEDSAT
1 49069U 21073D   24308.67703783  .00058822  00000-0  17472-2 0  9997
2 49069  97.4210  19.5476 0016234 146.8557 213.3706 15.34442010177761
CUTE
1 49263U 21088D   24308.72855033  .00063585  00000-0  21534-2 0  9997
2 49263  97.4797  14.5392 0010583 314.2239  45.8132 15.30291875170893
TeikyoSat 4
1 49396U 21102B   24308.60371078  .00009239  00000-0  63990-3 0  9999
2 49396  97.4416 348.7524 0013508 155.2961 204.8916 15.05792216163720
Z-Sat
1 49399U 21102E   24308.87682392  .00017332  00000-0  10362-2 0  9992
2 49399  97.4129 350.9915 0020399 134.3462 225.9444 15.10950320164069
KOSEN 1
1 49402U 21102H   24308.59595983  .00019377  00000-0  10334-2 0  9995
2 49402  97.4051 352.7438 0019047 117.4535 242.8637 15.15045384164229
HO-113
1 50466U 21131B   24308.87077092  .00003691  00000-0  11807-2 0  9994
2 50466  98.5229  33.2887 0005148  75.0541 285.1217 14.40195441150105
IRIS-A
1 51044U 22002BN  24308.70511961  .00068828  00000-0  15319-2 0  9990
2 51044  97.3652  15.5479 0004065 251.8545 108.2260 15.43382503155840
Planetum 1
1 52738U 22057G   24308.85914736  .00478078  00000-0  26280-2 0  9995
2 52738  97.5706  82.7298 0006230 310.8725  49.2000 15.78432407136257
Foresail-1
1 52766U 22057AL  24308.86866861  .00080871  00000-0  17736-2 0  9998
2 52766  97.5968  78.7946 0007873 351.3847   8.7264 15.43746495135902
SNUGLITE 2
1 52899U 22065F   24308.39964021  .00007234  00000-0  14531-2 0  9991
2 52899  98.1401  87.1059 0008581  79.7583 280.4586 14.61914255124591
IO-117
1 53106U 22080B   24304.53297825 -.00000003  00000-0  00000+0 0  9994
2 53106  70.1303 145.5071 0008350  77.3743 282.7850  6.42557747 53963
FO-118
1 54684U 22167C   24308.85099251  .00140384  00000-0  26383-2 0  9995
2 54684  97.6164  98.5877 0007713 357.4211   2.6997 15.48036733105758
SSS-2B
1 56184U 23054G   24308.81470130  .00246394  00000-0  21571-2 0  9995
2 56184  97.3435 209.7910 0007445  66.7925 293.4119 15.68102389 87771
SO-120
1 56992U 23084BU  24308.57274607  .00149550  00000-0  27962-2 0  9995
2 56992  97.5401  71.1022 0009824 253.7533 106.2636 15.48131637 77572
MRC-100
1 56993U 23084BV  24308.32840110  .00266052  00000-0  36951-2 0  9992
2 56993  97.5381  72.0672 0009456 255.9719 104.0484 15.56052978 77624
UmKA 1 (RS40S)
1 57172U 23091G   24308.72596117  .00015373  00000-0  92681-3 0  9990
2 57172  97.5931 359.4938 0016023  10.5039 349.6522 15.10746321 74539
CubeBel-2 (EU11S)
1 57175U 23091K   24308.83701038  .00026058  00000-0  14911-2 0  9996
2 57175  97.5929 359.7950 0014441  20.6916 339.4896 15.12538337 74566
VERONIKA
1 58261U 23174F   24308.77788043  .00066797  00000-0  21308-2 0  9991
2 58261  97.4456  23.0637 0010296 110.2850 249.9499 15.32210109 54992
KAFASAT
1 58317U 23174BP  24308.75426688  .00103979  00000-0  25987-2 0  9996
2 58317  97.4390  24.5078 0008070  84.0049 276.2116 15.39708283 55106
ENSO
1 58470U 23185J   24308.84798058  .00065260  00000-0  20637-2 0  9998
2 58470  97.4083  14.7262 0010982 140.9580 219.2457 15.32489709 51459
EIRSAT-1
1 58472U 23185L   24308.85688211  .00074961  00000-0  22344-2 0  9995
2 58472  97.4077  14.9862 0010359 141.5258 218.6726 15.34332984 51477
SO-121
1 58567U 23174CY  24308.73513014  .02766538  91619-2  47109-2 0  9997
2 58567  97.4141  28.3219 0007696 301.4463  58.6065 16.04873042 55356
SONATE-2
1 59112U 24043Q   24308.63165621  .00038093  00000-0  15331-2 0  9996
2 59112  97.4942  71.6049 0013385 164.2915 195.8741 15.24699253 37001
MO-122
1 60209U 24125G   24308.54490717  .00037616  00000-0  15074-2 0  9997
2 60209  97.3022 157.9842 0023080 191.0184 169.0552 15.24679457 18608
GRBBeta
1 60237U 24128C   24308.56135633  .00014174  00000-0  11698-2 0  9998
2 60237  61.9925 117.7405 0024093 359.1520   0.9524 14.99030442 17475
Curium One
1 60242U 24128H   24308.60038439  .00021394  00000-0  17466-2 0  9996
2 60242  61.9833 117.7877 0024257 348.1555  11.8960 14.99221043 17485
ROBUSTA-3A
1 60243U 24128J   24308.61748778  .00020011  00000-0  16484-2 0  9996
2 60243  61.9898 117.9607 0022340 344.9824  15.0598 14.98943865 17489
CatSat
1 60246U 24125J   24308.55341819  .00026116  00000-0  10725-2 0  9998
2 60246  97.2837 158.9564 0050185 145.4115 215.0404 15.23002808 16714
SR-0 DemoSAT
1 60455U 24147B   24306.95056519  .14569292  41128-5  32600-2 0  9995
2 60455  37.3538 162.9853 0013229 282.3917  77.5393 16.28877097 11746
Binar 4
1 60952U 98067WS  24308.47243571  .03688999  28018-1  34755-2 0  9990
2 60952  51.6141 337.0006 0007621  54.6177 305.5550 16.14904877 10367
CosmoGirlSat
1 60953U 98067WT  24308.46835993  .00353974  00000-0  24992-2 0  9996
2 60953  51.6301 340.7957 0006016  84.8941 275.2744 15.72407311 10310
Sakura
1 60954U 98067WU  24308.79521455  .00404276  00000-0  23827-2 0  9996
2 60954  51.6285 338.4724 0006920  75.2885 284.8882 15.76440931 10377
Binar 2
1 60956U 98067WW  24308.32934898  .01316135  83556-3  36179-2 0  9997
2 60956  51.6104 339.0433 0009630  57.6211 302.5727 15.93427647 10319
Binar 3
1 60957U 98067WX  24308.46440619  .02822484  13444-1  35497-2 0  9995
2 60957  51.6084 336.9321 0010489  52.5114 307.6852 16.10095519 12348
CySat-1
1 61501U 98067WZ  24308.79927539  .00185773  00000-0  23188-2 0  9996
2 61501  51.6359 343.0161 0008176 119.3463 240.8347 15.58683164  4145
DORA
1 61502U 98067XA  24308.50774828  .00383689  00000-0  37557-2 0  9998
2 61502  51.6325 344.0665 0009888  86.1899 274.0226 15.64296675  4097
